Weather History for 10637 - December, 2013

Change the Weather History Date:

Wednesday, December 4, 2013

  Actual Average Record
Temperature  
Mean Temperature 35 °F -  
Max Temperature 39 °F 39 °F - ()
Min Temperature 31 °F 30 °F - ()
Degree Days  
Heating Degree Days 30    
Moisture  
Dew Point 33 °F    
Average Humidity 89    
Maximum Humidity 100    
Minimum Humidity 76    
Precipitation  
Precipitation 0.00 in - - ()
Sea Level Pressure  
Sea Level Pressure 30.34 in    
Wind  
Wind Speed 8 mph ()    
Max Wind Speed 14 mph    
Max Gust Speed 21 mph    
Visibility 5.0 miles    
Events Rain    
T = Trace of Precipitation, MM = Missing Value Source: Averaged Metar Reports

Daily Weather History Graph

Daily Weather History Graph

Search for Another Location

Airport or City:

Trip Planner

Search our weather history database for the weather conditions in past years. The results will help you decide how hot, cold, wet, or windy it might be!

Date:

Astronomy

Dec. 04, 2013 Rise Set
Actual Time 8:06 AM CET 4:25 PM CET
Civil Twilight 7:28 AM CET 5:02 PM CET
Nautical Twilight 6:47 AM CET 5:43 PM CET
Astronomical Twilight 6:08 AM CET 6:22 PM CET
Moon 9:15 AM CET (12/4) 6:20 PM CET (12/4)
Length of Visible Light 9h 34m
Length of Day
8h 18m
Waxing Crescent, 3% of the Moon is Illuminated
Dec 4
Waxing Crescent
Dec 9
First Quarter
Dec 17
Full
Dec 25
Last Quarter
Jan 1
New

Hourly Weather History & Observations

Time (CET) Temp. Windchill Dew Point Humidity Pressure Visibility Wind Dir Wind Speed Gust Speed Precip Events Conditions
12:00 AM 33 °F - 32 °F 93% 30.39 in 2 mi SSW 4.5 mph - - Rain Light Drizzle
12:20 AM 32.0 °F 25.6 °F 32.0 °F 100% 30.36 in 2.8 mi SSW 6.9 mph - N/A   Mostly Cloudy
12:50 AM 32.0 °F 24.2 °F 32.0 °F 100% 30.36 in 3.1 mi SW 9.2 mph - N/A   Overcast
1:00 AM 33 °F - 31 °F 89% 30.38 in 3 mi SW 8.9 mph - - Rain Light Drizzle
1:20 AM 32.0 °F 24.2 °F 32.0 °F 100% 30.36 in 3.1 mi SW 9.2 mph - N/A   Overcast
1:50 AM 32.0 °F 24.2 °F 32.0 °F 100% 30.33 in 3.7 mi SW 9.2 mph - N/A   Overcast
2:00 AM 32 °F - 30 °F 90% 30.37 in 4 mi SW 8.9 mph - -   Mist
2:20 AM 32.0 °F 24.2 °F 32.0 °F 100% 30.33 in 3.7 mi WSW 9.2 mph - N/A   Overcast
2:50 AM 32.0 °F 25.6 °F 32.0 °F 100% 30.33 in 3.7 mi SW 6.9 mph - N/A   Overcast
3:00 AM 32 °F - 30 °F 91% 30.37 in 4 mi SW 6.7 mph - -   Mist
3:20 AM 32.0 °F 23.6 °F 32.0 °F 100% 30.33 in 3.7 mi SW 10.4 mph - N/A   Overcast
3:50 AM 32.0 °F 24.2 °F 32.0 °F 100% 30.33 in 3.7 mi SW 9.2 mph - N/A   Mostly Cloudy
4:20 AM 33.8 °F 27.7 °F 32.0 °F 93% 30.30 in 3.7 mi SW 6.9 mph - N/A   Mostly Cloudy
4:50 AM 33.8 °F 27.0 °F 32.0 °F 93% 30.30 in 3.7 mi SW 8.1 mph - N/A   Overcast
5:00 AM 33 °F - 30 °F 86% 30.34 in 4 mi SW 8.9 mph - -   Mist
5:20 AM 33.8 °F 26.4 °F 32.0 °F 93% 30.30 in 4.3 mi SW 9.2 mph - N/A   Overcast
5:50 AM 33.8 °F 26.4 °F 30.2 °F 87% 30.30 in 4.3 mi WSW 9.2 mph - N/A   Overcast
6:00 AM 34 °F - 30 °F 80% 30.34 in 4 mi WSW 8.9 mph - -   Mist
6:20 AM 33.8 °F 26.4 °F 30.2 °F 87% 30.30 in 4.3 mi WSW 9.2 mph - N/A   Overcast
6:50 AM 33.8 °F 27.0 °F 30.2 °F 87% 30.30 in 5.6 mi SSW 8.1 mph - N/A   Overcast
7:00 AM 34 °F - 30 °F 80% 30.33 in 6 mi SSW 8.9 mph - -   Overcast
7:20 AM 33.8 °F 27.0 °F 32.0 °F 93% 30.30 in 5.0 mi SW 8.1 mph - N/A   Mostly Cloudy
7:50 AM 33.8 °F 27.7 °F 32.0 °F 93% 30.30 in 4.3 mi SSW 6.9 mph - N/A   Mostly Cloudy
8:00 AM 34 °F - 31 °F 83% 30.34 in 4 mi SSW 6.7 mph - -   Mist
8:20 AM 33.8 °F 27.0 °F 32.0 °F 93% 30.30 in 4.3 mi SSW 8.1 mph - N/A   Light Drizzle
8:50 AM 35.6 °F 29.2 °F 32.0 °F 87% 30.30 in 4.3 mi SSW 8.1 mph - N/A   Light Drizzle
9:00 AM 35 °F - 32 °F 83% 30.34 in 4 mi SSW 8.9 mph - - Rain Light Drizzle
9:20 AM 35.6 °F 28.6 °F 32.0 °F 87% 30.33 in 5.0 mi SSW 9.2 mph - N/A   Mostly Cloudy
9:50 AM 35.6 °F 28.6 °F 33.8 °F 93% 30.33 in 5.0 mi SSW 9.2 mph - N/A   Mostly Cloudy
10:20 AM 35.6 °F 30.7 °F 33.8 °F 93% 30.33 in 4.3 mi SSW 5.8 mph - N/A   Mostly Cloudy
10:50 AM 35.6 °F 29.9 °F 33.8 °F 93% 30.33 in 4.3 mi SSW 6.9 mph - N/A   Mostly Cloudy
11:00 AM 36 °F - 33 °F 84% 30.36 in 4 mi SSW 6.7 mph - -   Mist
11:20 AM 35.6 °F 29.9 °F 33.8 °F 93% 30.33 in 4.3 mi South 6.9 mph 19.6 mph N/A   Light Drizzle
11:50 AM 37.4 °F 31.4 °F 33.8 °F 87% 30.33 in 4.3 mi South 8.1 mph - N/A   Mostly Cloudy
12:00 PM 36 °F - 33 °F 87% 30.35 in 4 mi South 6.7 mph - - Rain Light Drizzle
12:20 PM 35.6 °F 29.9 °F 33.8 °F 93% 30.33 in 4.3 mi South 6.9 mph - N/A   Mostly Cloudy
12:50 PM 37.4 °F 30.3 °F 35.6 °F 93% 30.33 in 4.3 mi SSW 10.4 mph - N/A   Overcast
1:00 PM 36 °F - 34 °F 87% 30.35 in 4 mi SSW 8.9 mph - -   Mist
1:20 PM 37.4 °F 30.8 °F 35.6 °F 93% 30.30 in 4.3 mi SSW 9.2 mph - N/A   Overcast
1:50 PM 37.4 °F 30.8 °F 35.6 °F 93% 30.30 in 4.3 mi SSW 9.2 mph 20.7 mph N/A   Mostly Cloudy
2:00 PM 37 °F - 34 °F 86% 30.34 in 4 mi SSW 8.9 mph - -   Mist
2:20 PM 37.4 °F 30.8 °F 35.6 °F 93% 30.30 in 5.0 mi SSW 9.2 mph 20.7 mph N/A   Mostly Cloudy
2:50 PM 37.4 °F 31.4 °F 35.6 °F 93% 30.33 in 5.6 mi SSW 8.1 mph - N/A   Mostly Cloudy
3:00 PM 38 °F - 35 °F 82% 30.35 in 6 mi SSW 8.9 mph - -   Overcast
3:20 PM 39.2 °F 34.2 °F 35.6 °F 87% 30.33 in 6.2 mi SW 6.9 mph - N/A   Mostly Cloudy
3:50 PM 39.2 °F 32.5 °F 33.8 °F 81% 30.33 in 6.2 mi SSW 10.4 mph - N/A   Mostly Cloudy
4:20 PM 39.2 °F 32.5 °F 33.8 °F 81% 30.33 in 6.2 mi SSW 10.4 mph - N/A   Mostly Cloudy
4:50 PM 39.2 °F 32.5 °F 33.8 °F 81% 30.33 in 6.2 mi SW 10.4 mph - N/A   Mostly Cloudy
5:00 PM 39 °F - 34 °F 76% 30.36 in 9 mi SW 8.9 mph - -   Overcast
5:20 PM 39.2 °F 31.2 °F 33.8 °F 81% 30.33 in 6.2 mi SW 13.8 mph - N/A   Mostly Cloudy
5:50 PM 39.2 °F 32.0 °F 33.8 °F 81% 30.33 in 6.2 mi SSW 11.5 mph - N/A   Mostly Cloudy
6:00 PM 39 °F - 34 °F 76% 30.37 in 8 mi SSW 11.2 mph - -   Overcast
6:20 PM 39.2 °F 32.5 °F 33.8 °F 81% 30.33 in 6.2 mi SSW 10.4 mph - N/A   Mostly Cloudy
6:50 PM 39.2 °F 32.5 °F 33.8 °F 81% 30.33 in 6.2 mi SSW 10.4 mph - N/A   Mostly Cloudy
7:00 PM 39 °F - 34 °F 76% 30.37 in 9 mi SSW 8.9 mph - -   Overcast
7:20 PM 39.2 °F 32.5 °F 33.8 °F 81% 30.33 in 6.2 mi SSW 10.4 mph - N/A   Mostly Cloudy
7:50 PM 39.2 °F 32.5 °F 35.6 °F 87% 30.36 in 6.2 mi SW 10.4 mph - N/A   Mostly Cloudy
8:00 PM 39 °F - 34 °F 77% 30.38 in 8 mi SW 11.2 mph - - Rain Light Rain
8:20 PM 39.2 °F 33.0 °F 35.6 °F 87% 30.36 in 6.2 mi SSW 9.2 mph - N/A   Overcast
8:50 PM 39.2 °F 32.5 °F 35.6 °F 87% 30.36 in 6.2 mi SSW 10.4 mph - N/A   Overcast
9:00 PM 38 °F - 35 °F 86% 30.38 in 7 mi SSW 11.2 mph - -   Overcast
9:20 PM 39.2 °F 33.0 °F 35.6 °F 87% 30.36 in 6.2 mi SSW 9.2 mph - N/A   Overcast
9:50 PM 39.2 °F 33.0 °F 37.4 °F 93% 30.36 in 6.2 mi SSW 9.2 mph - N/A   Overcast
10:20 PM 39.2 °F 34.2 °F 37.4 °F 93% 30.36 in 6.2 mi SSW 6.9 mph - N/A   Overcast
10:50 PM 39.2 °F 34.2 °F 37.4 °F 93% 30.36 in 5.6 mi South 6.9 mph - N/A   Overcast
11:00 PM 38 °F - 36 °F 90% 30.40 in 6 mi South 6.7 mph - - Rain Light Rain
11:20 PM 37.4 °F 31.4 °F 37.4 °F 100% 30.36 in 5.6 mi South 8.1 mph - N/A   Overcast
11:50 PM 39.2 °F 34.2 °F 39.2 °F 100% 30.39 in 5.0 mi South 6.9 mph - N/A   Overcast